Location: Kershaw
(34.5481°N, 80.5823°W)
Time: 13:05:07
(UTC+00:00)

A-11 Canister half - Pass Details

Date: 09 October 2022
Orbit: 1524 x 1685 km, 47.3° (Epoch: 25 November)

Event Time Altitude Azimuth Distance (km) Brightness Sun altitude
Rises 01:38:40 0° 304° (NW) 4,707 12.5 -33.8°
Reaches altitude 10° 01:41:41 10° 303° (WNW) 3,738 11.8 -34.4°
Maximum altitude 01:51:07 74° 221° (SW) 1,643 9.0 -36.3°
Enters shadow 01:51:44 72° 193° (SSW) 1,660 8.9 -36.4°
